Regional Weather Roundup
Issued by NWS

Home | Current Version | Previous Version | Graphics & Text | Print | Product List | Glossary On
Versions: 1 2 3 4 5 6 7 8 9 10 11 12 13 14 15 16 17 18 19 20 21 22 23 24 25 26 27 28 29 30 31 32 33 34 35 36 37 38 39 40 41 42 43 44 45 46 47 48 49 50
270
ASUS43 KTOP 201659
RWRKS

WEATHER ROUNDUP FOR KANSAS
NATIONAL WEATHER SERVICE GOODLAND KS
1100 AM CST MON NOV 20 2017

NOTE:  "FAIR" INDICATES FEW OR NO CLOUDS BELOW 12,000 FEET WITH NO
SIGNIFICANT WEATHER AND/OR OBSTRUCTIONS TO VISIBILITY.

KSZ001>006-013>018-027>032-041>047-201800-
NORTHWEST KANSAS

CITY           SKY/WX    TMP DP  RH WIND       PRES   REMARKS
GOODLAND       SUNNY     65   9  11 SW13      29.80S
HAYS           CLOUDY    47  24  40 S10       29.78F
HILL CITY      SUNNY     59  24  26 W8        29.78R
RUSSELL        SUNNY     50  24  36 SW16      29.77F
$$

KSZ061>065-074>080-084>089-201800-
SOUTHWEST KANSAS

CITY           SKY/WX    TMP DP  RH WIND       PRES   REMARKS
DODGE CITY     SUNNY     51  21  30 SW10      29.84F
GARDEN CITY    SUNNY     58  19  22 SW7       29.83F
GREAT BEND     MOSUNNY   51  23  33 SW14      29.82F
LIBERAL        CLOUDY    53  20  27 SW8       29.86F
$$

KSZ066>073-081>083-090>101-201800-
SOUTHEAST KANSAS

CITY           SKY/WX    TMP DP  RH WIND       PRES   REMARKS
CHANUTE        SUNNY     56  31  38 S26G35    29.97F
COFFEYVILLE    SUNNY     56  31  38 S20G29    30.01F
HUTCHINSON     SUNNY     54  23  30 SW20G26   29.86F
MEDICINE LODGE   N/A     55  22  27 S18G29    29.87F
NEWTON         SUNNY     53  25  33 SW31G37   29.86F
PARSONS        SUNNY     56  31  38 S23G32    29.99F
WICHITA INTL   MOSUNNY   55  28  35 SW23G38   29.90F
WICHITA MCCONL SUNNY     56  25  30 SW25G36   29.90F
WINFIELD       SUNNY     58  29  33 SW26G36   29.96F
$$

KSZ007>012-019>026-033>040-048>060-102>105-201800-
NORTHEAST KANSAS

CITY           SKY/WX    TMP DP  RH WIND       PRES   REMARKS
CONCORDIA      SUNNY     51  23  33 SW18      29.77F
EMPORIA        SUNNY     57  27  31 SW25G33   29.90F
LAWRENCE       SUNNY     58  27  30 S22G29    29.89F
MANHATTAN      SUNNY     55  25  31 SW22G31   29.83F
OLATHE IND     SUNNY     57  29  34 S24G36    29.91F
OLATHE EXE     SUNNY     55  30  38 S18G31    29.91F
SALINA         SUNNY     54  25  32 S20G28    29.83F
TOPEKA BILLARD SUNNY     56  27  32 SW18G30   29.87F
TOPEKA FORBES  SUNNY     57  27  31 SW26G33   29.86F
$$




USA.gov is the U.S. government's official web portal to all federal, state and local government web resources and services.